| time (UTC) | temp F | wind direction | speed MPH | gust MPH | rain 1hr in | rain 24hr in | rain mn in | humidity % | barometer mb |
| 20260831103003 | 64 | 0 | 0.0 | 0.0 | 0.04 | 0.06 | 0.06 | 61 | 1019.9 |
| 20260831102503 | 64 | 0 | 0.0 | 0.0 | 0.04 | 0.06 | 0.06 | 61 | 1019.8 |
| 20260831102003 | 64 | 0 | 0.0 | 0.0 | 0.04 | 0.05 | 0.05 | 61 | 1019.8 |
| 20260831101503 | 64 | 0 | 0.0 | 0.0 | 0.04 | 0.05 | 0.05 | 61 | 1019.8 |
| 20260831101003 | 64 | 0 | 0.0 | 0.0 | 0.05 | 0.05 | 0.05 | 61 | 1019.8 |
| 20260831100503 | 64 | 0 | 0.0 | 0.0 | 0.04 | 0.04 | 0.04 | 60 | 1019.9 |
| 20260831100003 | 64 | 0 | 0.0 | 0.0 | 0.04 | 0.04 | 0.04 | 60 | 1019.9 |
| 20260831095503 | 64 | 0 | 0.0 | 0.0 | 0.03 | 0.03 | 0.03 | 60 | 1019.8 |
| 20260831095003 | 64 | 0 | 0.0 | 0.0 | 0.03 | 0.03 | 0.03 | 59 | 1019.9 |
| 20260831094503 | 64 | 0 | 0.0 | 0.0 | 0.02 | 0.02 | 0.02 | 59 | 1019.9 |
| 20260831094003 | 64 | 0 | 0.0 | 0.0 | 0.02 | 0.02 | 0.02 | 59 | 1019.8 |
| 20260831093503 | 64 | 0 | 0.0 | 0.0 | 0.02 | 0.02 | 0.02 | 58 | 1019.8 |
| 20260831093213 | 64 | 0 | 0.0 | 0.0 | 0.02 | 0.02 | 0.02 | 58 | 1019.8 |
| 20260831092503 | 64 | 258 | 0.0 | 1.0 | 0.02 | 0.02 | 0.02 | 58 | 1019.9 |
| 20260831092003 | 64 | 260 | 0.0 | 2.0 | 0.01 | 0.01 | 0.01 | 57 | 1019.8 |
| 20260831091503 | 64 | 261 | 0.0 | 2.0 | 0.01 | 0.01 | 0.01 | 57 | 1019.8 |
| 20260831091003 | 64 | 259 | 0.0 | 2.0 | 0.00 | 0.00 | 0.00 | 57 | 1019.8 |
| 20260831090503 | 64 | 258 | 0.0 | 2.0 | 0.00 | 0.00 | 0.00 | 57 | 1019.8 |
| 20260831090003 | 64 | 252 | 0.0 | 2.0 | 0.00 | 0.00 | 0.00 | 57 | 1019.9 |
| 20260831085503 | 64 | 252 | 0.0 | 2.0 | 0.00 | 0.00 | 0.00 | 57 | 1019.9 |
| 20260831085003 | 64 | 240 | 0.0 | 2.0 | 0.00 | 0.00 | 0.00 | 56 | 1020.0 |
| 20260831084503 | 64 | 228 | 0.0 | 3.0 | 0.00 | 0.00 | 0.00 | 56 | 1020.0 |
| 20260831084003 | 64 | 245 | 1.0 | 3.0 | 0.00 | 0.00 | 0.00 | 56 | 1019.9 |
| 20260831083503 | 64 | 254 | 0.0 | 4.0 | 0.00 | 0.00 | 0.00 | 57 | 1020.0 |
| 20260831083003 | 64 | 249 | 0.0 | 4.0 | 0.00 | 0.00 | 0.00 | 57 | 1020.0 |
| 20260831082503 | 64 | 0 | 0.0 | 0.0 | 0.00 | 0.00 | 0.00 | 57 | 1020.1 |
| 20260831082003 | 64 | 0 | 0.0 | 0.0 | 0.00 | 0.00 | 0.00 | 57 | 1020.0 |
| 20260831081503 | 64 | 0 | 0.0 | 0.0 | 0.00 | 0.00 | 0.00 | 57 | 1020.0 |
| 20260831081003 | 64 | 0 | 0.0 | 0.0 | 0.00 | 0.00 | 0.00 | 57 | 1020.0 |
| 20260831080503 | 64 | 0 | 0.0 | 0.0 | 0.00 | 0.00 | 0.00 | 57 | 1019.8 |
| 20260831080003 | 64 | 0 | 0.0 | 0.0 | 0.00 | 0.00 | 0.00 | 57 | 1019.7 |
| 20260831075503 | 64 | 0 | 0.0 | 0.0 | 0.00 | 0.00 | 0.00 | 57 | 1019.7 |
| 20260831075003 | 64 | 0 | 0.0 | 0.0 | 0.00 | 0.00 | 0.00 | 57 | 1019.9 |
| 20260831074503 | 64 | 0 | 0.0 | 0.0 | 0.00 | 0.00 | 0.00 | 57 | 1020.0 |
| 20260831074003 | 64 | 0 | 0.0 | 0.0 | 0.00 | 0.00 | 0.00 | 57 | 1019.9 |
| 20260831073503 | 64 | 0 | 0.0 | 0.0 | 0.00 | 0.00 | 0.00 | 57 | 1019.9 |
| 20260831073003 | 64 | 0 | 0.0 | 0.0 | 0.00 | 0.00 | 0.00 | 57 | 1020.0 |
| 20260831072503 | 64 | 214 | 0.0 | 2.0 | 0.00 | 0.00 | 0.00 | 57 | 1020.0 |
| 20260831072004 | 64 | 214 | 0.0 | 2.0 | 0.00 | 0.00 | 0.00 | 57 | 1020.1 |
| 20260831071713 | 64 | 198 | 0.0 | 2.0 | 0.00 | 0.00 | 0.00 | 57 | 1020.1 |
| 20260831071003 | 64 | 0 | 0.0 | 0.0 | 0.00 | 0.00 | 0.00 | 57 | 1020.0 |
| 20260831070503 | 64 | 0 | 0.0 | 0.0 | 0.00 | 0.00 | 0.00 | 56 | 1020.0 |
| 20260831070003 | 64 | 196 | 0.0 | 2.0 | 0.00 | 0.00 | 0.00 | 56 | 1020.1 |
| 20260831065503 | 64 | 196 | 0.0 | 2.0 | 0.00 | 0.00 | 0.00 | 56 | 1020.2 |
| 20260831065003 | 64 | 0 | 0.0 | 0.0 | 0.00 | 0.00 | 0.00 | 56 | 1020.2 |
| 20260831064503 | 64 | 0 | 0.0 | 0.0 | 0.00 | 0.00 | 0.00 | 56 | 1020.1 |
| 20260831064003 | 64 | 115 | 0.0 | 3.0 | 0.00 | 0.00 | 0.00 | 56 | 1020.1 |
| 20260831063503 | 64 | 128 | 1.0 | 3.0 | 0.00 | 0.00 | 0.00 | 56 | 1020.1 |
| 20260831063003 | 64 | 265 | 1.0 | 4.0 | 0.00 | 0.00 | 0.00 | 56 | 1019.9 |
| 20260831062713 | 64 | 275 | 2.0 | 4.0 | 0.00 | 0.00 | 0.00 | 56 | 1020.0 |
| 20260831062003 | 64 | 274 | 2.0 | 4.0 | 0.00 | 0.00 | 0.00 | 56 | 1020.0 |
| 20260831061503 | 64 | 273 | 1.0 | 4.0 | 0.00 | 0.00 | 0.00 | 57 | 1020.2 |
| 20260831061003 | 64 | 264 | 0.0 | 4.0 | 0.00 | 0.00 | 0.00 | 57 | 1020.2 |
| 20260831060503 | 64 | 0 | 0.0 | 0.0 | 0.00 | 0.00 | 0.00 | 57 | 1020.3 |
| 20260831060214 | 64 | 0 | 0.0 | 0.0 | 0.00 | 0.00 | 0.00 | 56 | 1020.2 |
| 20260831055503 | 64 | 0 | 0.0 | 0.0 | 0.00 | 0.00 | 0.00 | 56 | 1020.3 |
| 20260831055003 | 64 | 0 | 0.0 | 0.0 | 0.00 | 0.00 | 0.00 | 57 | 1020.3 |
| 20260831054503 | 64 | 318 | 0.0 | 3.0 | 0.00 | 0.00 | 0.00 | 57 | 1020.3 |
| 20260831054003 | 63 | 319 | 1.0 | 3.0 | 0.00 | 0.00 | 0.00 | 57 | 1020.3 |
| 20260831053503 | 63 | 319 | 0.0 | 2.0 | 0.00 | 0.00 | 0.00 | 56 | 1020.3 |
| 20260831053003 | 63 | 319 | 0.0 | 1.0 | 0.00 | 0.00 | 0.00 | 56 | 1020.3 |
| 20260831052503 | 63 | 0 | 0.0 | 0.0 | 0.00 | 0.00 | 0.00 | 56 | 1020.4 |
| 20260831052003 | 63 | 0 | 0.0 | 0.0 | 0.00 | 0.00 | 0.00 | 57 | 1020.5 |
| 20260831051503 | 63 | 0 | 0.0 | 0.0 | 0.00 | 0.00 | 0.00 | 57 | 1020.6 |
| 20260831051003 | 63 | 0 | 0.0 | 0.0 | 0.00 | 0.00 | 0.00 | 57 | 1020.6 |
| 20260831050503 | 63 | 0 | 0.0 | 0.0 | 0.00 | 0.00 | 0.00 | 57 | 1020.6 |
| 20260831050003 | 63 | 0 | 0.0 | 0.0 | 0.00 | 0.00 | 0.00 | 57 | 1020.8 |
| 20260831045503 | 63 | 0 | 0.0 | 0.0 | 0.00 | 0.00 | 0.00 | 57 | 1020.8 |
| 20260831045003 | 63 | 0 | 0.0 | 0.0 | 0.00 | 0.00 | 0.00 | 57 | 1020.8 |
| 20260831044712 | 63 | 0 | 0.0 | 0.0 | 0.00 | 0.00 | 0.00 | 57 | 1020.8 |
| 20260831044003 | 63 | 0 | 0.0 | 0.0 | 0.00 | 0.00 | 0.00 | 57 | 1020.8 |
| 20260831043503 | 63 | 0 | 0.0 | 0.0 | 0.00 | 0.00 | 0.00 | 57 | 1020.8 |
| 20260831043003 | 63 | 0 | 0.0 | 0.0 | 0.00 | 0.00 | 0.00 | 57 | 1020.8 |
| 20260831042503 | 63 | 0 | 0.0 | 0.0 | 0.00 | 0.00 | 0.00 | 57 | 1020.8 |
| 20260831042003 | 63 | 321 | 0.0 | 1.0 | 0.00 | 0.00 | 0.00 | 57 | 1020.6 |
| 20260831041503 | 63 | 321 | 0.0 | 1.0 | 0.00 | 0.00 | 0.00 | 57 | 1020.5 |
| 20260831041003 | 63 | 0 | 0.0 | 0.0 | 0.00 | 0.00 | 0.00 | 57 | 1020.5 |
| 20260831040503 | 63 | 0 | 0.0 | 0.0 | 0.00 | 0.00 | 0.00 | 57 | 1020.5 |
| 20260831040213 | 63 | 0 | 0.0 | 0.0 | 0.00 | 0.00 | 0.00 | 57 | 1020.6 |
| 20260831035503 | 63 | 0 | 0.0 | 0.0 | 0.00 | 0.00 | 0.00 | 57 | 1020.6 |
| 20260831035003 | 63 | 321 | 0.0 | 1.0 | 0.00 | 0.00 | 0.00 | 57 | 1020.5 |
| 20260831034712 | 63 | 321 | 0.0 | 1.0 | 0.00 | 0.00 | 0.00 | 57 | 1020.6 |
| 20260831034003 | 62 | 322 | 0.0 | 2.0 | 0.00 | 0.00 | 0.00 | 58 | 1020.5 |
| 20260831033503 | 62 | 0 | 0.0 | 0.0 | 0.00 | 0.00 | 0.00 | 58 | 1020.7 |
| 20260831033213 | 62 | 0 | 0.0 | 0.0 | 0.00 | 0.00 | 0.00 | 59 | 1020.6 |
| 20260831032503 | 62 | 0 | 0.0 | 0.0 | 0.00 | 0.00 | 0.00 | 59 | 1020.8 |
| 20260831032003 | 63 | 0 | 0.0 | 0.0 | 0.00 | 0.00 | 0.00 | 59 | 1020.8 |
| 20260831031503 | 63 | 323 | 0.0 | 2.0 | 0.00 | 0.00 | 0.00 | 59 | 1020.6 |
| 20260831031003 | 63 | 316 | 1.0 | 2.0 | 0.00 | 0.00 | 0.00 | 59 | 1020.6 |
| 20260831030503 | 63 | 287 | 0.0 | 4.0 | 0.00 | 0.00 | 0.00 | 59 | 1020.6 |
| 20260831030003 | 63 | 278 | 1.0 | 4.0 | 0.00 | 0.00 | 0.00 | 59 | 1020.7 |
| 20260831025503 | 63 | 277 | 0.0 | 3.0 | 0.00 | 0.00 | 0.00 | 60 | 1020.6 |
| 20260831025003 | 63 | 277 | 0.0 | 2.0 | 0.00 | 0.00 | 0.00 | 60 | 1020.6 |
| 20260831024714 | 63 | 0 | 0.0 | 0.0 | 0.00 | 0.00 | 0.00 | 60 | 1020.5 |
| 20260831024003 | 63 | 0 | 0.0 | 0.0 | 0.00 | 0.00 | 0.00 | 60 | 1020.6 |
| 20260831023503 | 63 | 277 | 0.0 | 1.0 | 0.00 | 0.00 | 0.00 | 60 | 1020.6 |
| 20260831023003 | 63 | 277 | 0.0 | 1.0 | 0.00 | 0.00 | 0.00 | 60 | 1020.8 |
| 20260831022714 | 63 | 277 | 0.0 | 3.0 | 0.00 | 0.00 | 0.00 | 61 | 1020.7 |
| 20260831022213 | 63 | 278 | 1.0 | 6.0 | 0.00 | 0.00 | 0.00 | 61 | 1020.7 |
| 20260831021713 | 63 | 276 | 1.0 | 6.0 | 0.00 | 0.00 | 0.00 | 61 | 1020.7 |
| 20260831021003 | 63 | 258 | 1.0 | 6.0 | 0.00 | 0.00 | 0.00 | 61 | 1020.6 |
| 20260831020503 | 63 | 261 | 2.0 | 6.0 | 0.00 | 0.00 | 0.00 | 61 | 1020.7 |
| 20260831020003 | 63 | 270 | 1.0 | 4.0 | 0.00 | 0.00 | 0.00 | 62 | 1020.7 |
| 20260831015713 | 63 | 270 | 1.0 | 3.0 | 0.00 | 0.00 | 0.00 | 62 | 1020.8 |
| 20260831015003 | 63 | 273 | 0.0 | 2.0 | 0.00 | 0.00 | 0.00 | 62 | 1020.8 |
| 20260831014713 | 63 | 273 | 0.0 | 3.0 | 0.00 | 0.00 | 0.00 | 62 | 1020.8 |
| 20260831014003 | 63 | 274 | 0.0 | 3.0 | 0.00 | 0.00 | 0.00 | 62 | 1020.7 |
| 20260831013713 | 64 | 270 | 0.0 | 3.0 | 0.00 | 0.00 | 0.00 | 62 | 1020.7 |
| 20260831013003 | 64 | 224 | 1.0 | 3.0 | 0.00 | 0.00 | 0.00 | 61 | 1020.5 |
| 20260831012503 | 64 | 230 | 1.0 | 4.0 | 0.00 | 0.00 | 0.00 | 62 | 1020.7 |
| 20260831012003 | 64 | 226 | 1.0 | 4.0 | 0.00 | 0.00 | 0.00 | 62 | 1020.7 |
| 20260831011503 | 64 | 211 | 2.0 | 6.0 | 0.00 | 0.00 | 0.00 | 62 | 1020.7 |
| 20260831011214 | 64 | 204 | 2.0 | 6.0 | 0.00 | 0.00 | 0.00 | 62 | 1020.6 |
| 20260831010503 | 64 | 190 | 3.0 | 5.0 | 0.00 | 0.00 | 0.00 | 62 | 1020.3 |
| 20260831010003 | 64 | 189 | 2.0 | 6.0 | 0.00 | 0.00 | 0.00 | 62 | 1020.4 |
| 20260831005503 | 64 | 193 | 1.0 | 6.0 | 0.00 | 0.00 | 0.00 | 62 | 1020.4 |
| 20260831005003 | 64 | 201 | 0.0 | 2.0 | 0.00 | 0.00 | 0.00 | 63 | 1020.5 |
| 20260831004503 | 64 | 0 | 0.0 | 0.0 | 0.00 | 0.00 | 0.00 | 63 | 1020.3 |
| 20260831004003 | 64 | 211 | 0.0 | 4.0 | 0.00 | 0.00 | 0.00 | 63 | 1020.3 |
| 20260831003503 | 64 | 211 | 0.0 | 4.0 | 0.00 | 0.00 | 0.00 | 63 | 1020.1 |
| 20260831003003 | 64 | 262 | 0.0 | 2.0 | 0.00 | 0.00 | 0.00 | 63 | 1019.9 |
| 20260831002503 | 64 | 216 | 1.0 | 5.0 | 0.00 | 0.00 | 0.00 | 64 | 1019.9 |
| 20260831002003 | 64 | 200 | 2.0 | 6.0 | 0.00 | 0.00 | 0.00 | 64 | 1019.8 |
| 20260831001503 | 65 | 196 | 2.0 | 6.0 | 0.00 | 0.00 | 0.00 | 63 | 1019.8 |
| 20260831001003 | 65 | 196 | 0.0 | 3.0 | 0.00 | 0.00 | 0.00 | 63 | 1019.8 |
| 20260831000503 | 65 | 226 | 0.0 | 2.0 | 0.00 | 0.00 | 0.00 | 63 | 1019.9 |
| 20260831000214 | 66 | 215 | 1.0 | 4.0 | 0.00 | 0.00 | 0.00 | 62 | 1019.9 |
| 20260830235503 | 66 | 212 | 0.0 | 4.0 | 0.00 | 0.00 | 0.00 | 62 | 1019.8 |
| 20260830235003 | 66 | 0 | 0.0 | 0.0 | 0.00 | 0.00 | 0.00 | 62 | 1019.7 |
| 20260830234503 | 66 | 0 | 0.0 | 0.0 | 0.00 | 0.00 | 0.00 | 61 | 1019.6 |
| 20260830234003 | 66 | 0 | 0.0 | 0.0 | 0.00 | 0.00 | 0.00 | 61 | 1019.6 |
| 20260830233503 | 66 | 0 | 0.0 | 0.0 | 0.00 | 0.00 | 0.00 | 61 | 1019.5 |
| 20260830233003 | 66 | 0 | 0.0 | 0.0 | 0.00 | 0.00 | 0.00 | 61 | 1019.6 |
| 20260830232503 | 66 | 0 | 0.0 | 0.0 | 0.00 | 0.00 | 0.00 | 61 | 1019.6 |
| 20260830232213 | 66 | 0 | 0.0 | 0.0 | 0.00 | 0.00 | 0.00 | 61 | 1019.6 |
| 20260830231712 | 66 | 0 | 0.0 | 0.0 | 0.00 | 0.00 | 0.00 | 62 | 1019.6 |
| 20260830231213 | 66 | 0 | 0.0 | 0.0 | 0.00 | 0.00 | 0.00 | 62 | 1019.6 |
| 20260830230503 | 66 | 0 | 0.0 | 0.0 | 0.00 | 0.00 | 0.00 | 62 | 1019.7 |
| 20260830230004 | 66 | 0 | 0.0 | 0.0 | 0.00 | 0.00 | 0.00 | 62 | 1019.7 |
| 20260830225503 | 66 | 0 | 0.0 | 0.0 | 0.00 | 0.00 | 0.00 | 62 | 1019.6 |
| 20260830225003 | 66 | 0 | 0.0 | 0.0 | 0.00 | 0.00 | 0.00 | 62 | 1019.7 |
| 20260830224503 | 66 | 0 | 0.0 | 0.0 | 0.00 | 0.00 | 0.00 | 62 | 1019.8 |
| 20260830224003 | 66 | 0 | 0.0 | 0.0 | 0.00 | 0.00 | 0.00 | 62 | 1019.8 |
| 20260830223503 | 66 | 0 | 0.0 | 0.0 | 0.00 | 0.00 | 0.00 | 62 | 1019.8 |
| 20260830223003 | 66 | 0 | 0.0 | 0.0 | 0.00 | 0.00 | 0.00 | 61 | 1019.8 |
| 20260830222503 | 67 | 0 | 0.0 | 0.0 | 0.00 | 0.00 | 0.00 | 61 | 1019.9 |
| 20260830222003 | 67 | 0 | 0.0 | 0.0 | 0.00 | 0.00 | 0.00 | 62 | 1019.7 |
| 20260830221503 | 67 | 0 | 0.0 | 0.0 | 0.00 | 0.00 | 0.00 | 62 | 1019.8 |
| 20260830221003 | 67 | 0 | 0.0 | 0.0 | 0.00 | 0.00 | 0.00 | 62 | 1019.7 |
| 20260830220714 | 67 | 0 | 0.0 | 0.0 | 0.00 | 0.00 | 0.00 | 62 | 1019.8 |
| 20260830220003 | 67 | 275 | 0.0 | 1.0 | 0.00 | 0.00 | 0.00 | 62 | 1019.9 |
| 20260830215503 | 66 | 273 | 0.0 | 4.0 | 0.00 | 0.00 | 0.00 | 62 | 1019.7 |
| 20260830215213 | 67 | 204 | 1.0 | 5.0 | 0.00 | 0.00 | 0.00 | 63 | 1019.7 |
| 20260830214503 | 67 | 193 | 1.0 | 5.0 | 0.00 | 0.00 | 0.00 | 62 | 1019.7 |
| 20260830214003 | 67 | 187 | 0.0 | 3.0 | 0.00 | 0.00 | 0.00 | 62 | 1019.7 |
| 20260830213504 | 67 | 255 | 1.0 | 4.0 | 0.00 | 0.00 | 0.00 | 62 | 1019.7 |
| 20260830213003 | 67 | 262 | 2.0 | 7.0 | 0.00 | 0.00 | 0.00 | 62 | 1019.7 |
| 20260830212503 | 67 | 256 | 2.0 | 10.0 | 0.00 | 0.00 | 0.00 | 61 | 1019.8 |
| 20260830212003 | 68 | 255 | 1.0 | 10.0 | 0.00 | 0.00 | 0.00 | 61 | 1019.8 |
| 20260830211714 | 68 | 281 | 1.0 | 10.0 | 0.00 | 0.00 | 0.00 | 60 | 1019.8 |
| 20260830211003 | 68 | 283 | 1.0 | 6.0 | 0.00 | 0.00 | 0.00 | 60 | 1019.8 |
| 20260830210503 | 68 | 244 | 1.0 | 6.0 | 0.00 | 0.00 | 0.00 | 60 | 1019.8 |
| 20260830210213 | 68 | 247 | 1.0 | 5.0 | 0.00 | 0.00 | 0.00 | 60 | 1019.8 |
| 20260830205503 | 68 | 257 | 1.0 | 5.0 | 0.00 | 0.00 | 0.00 | 60 | 1019.7 |
| 20260830205003 | 68 | 194 | 1.0 | 4.0 | 0.00 | 0.00 | 0.00 | 60 | 1019.7 |
| 20260830204503 | 68 | 185 | 1.0 | 4.0 | 0.00 | 0.00 | 0.00 | 60 | 1019.8 |
| 20260830204003 | 68 | 173 | 1.0 | 6.0 | 0.00 | 0.00 | 0.00 | 61 | 1019.7 |
| 20260830203503 | 68 | 208 | 3.0 | 10.0 | 0.00 | 0.00 | 0.00 | 60 | 1019.8 |
| 20260830203003 | 68 | 251 | 3.0 | 10.0 | 0.00 | 0.00 | 0.00 | 61 | 1019.8 |
| 20260830202503 | 68 | 213 | 2.0 | 10.0 | 0.00 | 0.00 | 0.00 | 60 | 1019.9 |
| 20260830202003 | 68 | 198 | 2.0 | 8.0 | 0.00 | 0.00 | 0.00 | 60 | 1019.8 |
| 20260830201503 | 68 | 228 | 3.0 | 8.0 | 0.00 | 0.00 | 0.00 | 59 | 1019.8 |
| 20260830201003 | 68 | 235 | 3.0 | 8.0 | 0.00 | 0.00 | 0.00 | 59 | 1019.7 |
| 20260830200503 | 68 | 228 | 2.0 | 8.0 | 0.00 | 0.00 | 0.00 | 59 | 1019.6 |
| 20260830200003 | 68 | 247 | 3.0 | 10.0 | 0.00 | 0.00 | 0.00 | 58 | 1019.8 |
| 20260830195503 | 68 | 264 | 3.0 | 10.0 | 0.00 | 0.00 | 0.00 | 58 | 1019.8 |
| 20260830195003 | 69 | 272 | 2.0 | 9.0 | 0.00 | 0.00 | 0.00 | 57 | 1019.8 |
| 20260830194713 | 69 | 252 | 2.0 | 7.0 | 0.00 | 0.00 | 0.00 | 58 | 1019.9 |
| 20260830194003 | 69 | 163 | 2.0 | 5.0 | 0.00 | 0.00 | 0.00 | 59 | 1019.8 |
| 20260830193503 | 69 | 174 | 2.0 | 6.0 | 0.00 | 0.00 | 0.00 | 59 | 1019.8 |
| 20260830193214 | 68 | 189 | 2.0 | 6.0 | 0.00 | 0.00 | 0.00 | 59 | 1019.9 |
| 20260830192503 | 68 | 182 | 2.0 | 7.0 | 0.00 | 0.00 | 0.00 | 59 | 1020.0 |
| 20260830192003 | 68 | 183 | 2.0 | 7.0 | 0.00 | 0.00 | 0.00 | 59 | 1020.0 |
| 20260830191503 | 69 | 183 | 2.0 | 5.0 | 0.00 | 0.00 | 0.00 | 59 | 1020.0 |
| 20260830191003 | 69 | 202 | 1.0 | 4.0 | 0.00 | 0.00 | 0.00 | 59 | 1020.0 |
| 20260830190503 | 69 | 231 | 1.0 | 5.0 | 0.00 | 0.00 | 0.00 | 59 | 1020.0 |
| 20260830190003 | 68 | 209 | 1.0 | 5.0 | 0.00 | 0.00 | 0.00 | 60 | 1020.1 |
| 20260830185503 | 68 | 257 | 1.0 | 4.0 | 0.00 | 0.00 | 0.00 | 59 | 1020.1 |
| 20260830185003 | 68 | 265 | 2.0 | 6.0 | 0.00 | 0.00 | 0.00 | 58 | 1020.2 |
| 20260830184713 | 69 | 266 | 2.0 | 7.0 | 0.00 | 0.00 | 0.00 | 58 | 1020.2 |
| 20260830184003 | 69 | 287 | 2.0 | 8.0 | 0.00 | 0.00 | 0.00 | 57 | 1020.3 |
| 20260830183503 | 70 | 286 | 2.0 | 8.0 | 0.00 | 0.00 | 0.00 | 57 | 1020.2 |
| 20260830183214 | 70 | 273 | 2.0 | 7.0 | 0.00 | 0.00 | 0.00 | 56 | 1020.2 |
| 20260830182503 | 70 | 265 | 2.0 | 9.0 | 0.00 | 0.00 | 0.00 | 56 | 1020.2 |
| 20260830182003 | 70 | 267 | 2.0 | 4.0 | 0.00 | 0.00 | 0.00 | 57 | 1020.2 |
| 20260830181503 | 70 | 270 | 2.0 | 4.0 | 0.00 | 0.00 | 0.00 | 56 | 1020.1 |
| 20260830181003 | 70 | 235 | 1.0 | 5.0 | 0.00 | 0.00 | 0.00 | 56 | 1020.1 |
| 20260830180713 | 70 | 210 | 1.0 | 5.0 | 0.00 | 0.00 | 0.00 | 57 | 1020.1 |
| 20260830180003 | 69 | 272 | 2.0 | 9.0 | 0.00 | 0.00 | 0.00 | 56 | 1020.4 |
| 20260830175503 | 70 | 264 | 2.0 | 9.0 | 0.00 | 0.00 | 0.00 | 55 | 1020.3 |
| 20260830175003 | 70 | 250 | 1.0 | 3.0 | 0.00 | 0.00 | 0.00 | 56 | 1020.1 |
| 20260830174503 | 69 | 261 | 1.0 | 4.0 | 0.00 | 0.00 | 0.00 | 57 | 1019.9 |
| 20260830174213 | 69 | 275 | 1.0 | 4.0 | 0.00 | 0.00 | 0.00 | 57 | 1019.8 |
| 20260830173503 | 69 | 272 | 2.0 | 6.0 | 0.00 | 0.00 | 0.00 | 56 | 1019.8 |
| 20260830173213 | 69 | 266 | 2.0 | 7.0 | 0.00 | 0.00 | 0.00 | 57 | 1019.9 |
| 20260830172503 | 69 | 263 | 2.0 | 7.0 | 0.00 | 0.00 | 0.00 | 56 | 1020.0 |
| 20260830172003 | 69 | 255 | 3.0 | 7.0 | 0.00 | 0.00 | 0.00 | 57 | 1020.0 |
| 20260830171503 | 69 | 256 | 2.0 | 8.0 | 0.00 | 0.00 | 0.00 | 56 | 1020.0 |
| 20260830171003 | 70 | 262 | 3.0 | 8.0 | 0.00 | 0.00 | 0.00 | 55 | 1020.2 |
| 20260830170503 | 70 | 261 | 3.0 | 10.0 | 0.00 | 0.00 | 0.00 | 55 | 1020.1 |
| 20260830170213 | 70 | 260 | 4.0 | 10.0 | 0.00 | 0.00 | 0.00 | 54 | 1020.2 |
| 20260830165503 | 71 | 269 | 2.0 | 10.0 | 0.00 | 0.00 | 0.00 | 53 | 1020.3 |
| 20260830165213 | 71 | 274 | 1.0 | 10.0 | 0.00 | 0.00 | 0.00 | 53 | 1020.4 |
| 20260830164503 | 71 | 255 | 0.0 | 4.0 | 0.00 | 0.00 | 0.00 | 53 | 1020.3 |
| 20260830164003 | 71 | 224 | 1.0 | 3.0 | 0.00 | 0.00 | 0.00 | 54 | 1020.4 |
| 20260830163503 | 71 | 224 | 1.0 | 3.0 | 0.00 | 0.00 | 0.00 | 53 | 1020.3 |
| 20260830163003 | 70 | 242 | 0.0 | 2.0 | 0.00 | 0.00 | 0.00 | 54 | 1020.3 |
| 20260830162503 | 70 | 273 | 1.0 | 7.0 | 0.00 | 0.00 | 0.00 | 53 | 1020.4 |
| 20260830162003 | 70 | 279 | 1.0 | 7.0 | 0.00 | 0.00 | 0.00 | 53 | 1020.4 |
| 20260830161503 | 71 | 289 | 1.0 | 4.0 | 0.00 | 0.00 | 0.00 | 53 | 1020.5 |
| 20260830161004 | 71 | 293 | 1.0 | 4.0 | 0.00 | 0.00 | 0.00 | 52 | 1020.5 |
| 20260830160503 | 71 | 297 | 1.0 | 3.0 | 0.00 | 0.00 | 0.00 | 52 | 1020.3 |
| 20260830160003 | 71 | 311 | 1.0 | 3.0 | 0.00 | 0.00 | 0.00 | 53 | 1020.4 |
| 20260830155503 | 71 | 295 | 1.0 | 7.0 | 0.00 | 0.00 | 0.00 | 53 | 1020.4 |
| 20260830155003 | 70 | 287 | 1.0 | 7.0 | 0.00 | 0.00 | 0.00 | 53 | 1020.7 |
| 20260830154503 | 70 | 291 | 0.0 | 3.0 | 0.00 | 0.00 | 0.00 | 54 | 1020.6 |
| 20260830154003 | 70 | 289 | 0.0 | 3.0 | 0.00 | 0.00 | 0.00 | 54 | 1020.6 |
| 20260830153503 | 70 | 286 | 0.0 | 3.0 | 0.00 | 0.00 | 0.00 | 55 | 1020.7 |
| 20260830153003 | 70 | 285 | 1.0 | 3.0 | 0.00 | 0.00 | 0.00 | 54 | 1020.6 |
| 20260830152503 | 70 | 282 | 1.0 | 3.0 | 0.00 | 0.00 | 0.00 | 53 | 1020.6 |
| 20260830152003 | 70 | 279 | 0.0 | 3.0 | 0.00 | 0.00 | 0.00 | 53 | 1020.4 |
| 20260830151503 | 71 | 278 | 0.0 | 1.0 | 0.00 | 0.00 | 0.00 | 56 | 1020.3 |
| 20260830151003 | 71 | 279 | 0.0 | 3.0 | 0.00 | 0.00 | 0.00 | 55 | 1020.3 |
| 20260830150713 | 71 | 279 | 0.0 | 3.0 | 0.00 | 0.00 | 0.00 | 55 | 1020.3 |
| 20260830150003 | 71 | 278 | 0.0 | 3.0 | 0.00 | 0.00 | 0.00 | 54 | 1020.3 |
| 20260830145503 | 71 | 278 | 0.0 | 3.0 | 0.00 | 0.00 | 0.00 | 55 | 1020.3 |
| 20260830145003 | 71 | 278 | 0.0 | 2.0 | 0.00 | 0.00 | 0.00 | 55 | 1020.1 |
| 20260830144503 | 71 | 274 | 1.0 | 6.0 | 0.00 | 0.00 | 0.00 | 52 | 1020.3 |
| 20260830144214 | 71 | 275 | 1.0 | 6.0 | 0.00 | 0.00 | 0.00 | 53 | 1020.2 |
| 20260830143713 | 71 | 278 | 1.0 | 3.0 | 0.00 | 0.00 | 0.00 | 52 | 1020.2 |
| 20260830143214 | 71 | 287 | 1.0 | 3.0 | 0.00 | 0.00 | 0.00 | 54 | 1020.1 |
| 20260830142713 | 71 | 268 | 1.0 | 3.0 | 0.00 | 0.00 | 0.00 | 53 | 1020.0 |
| 20260830142003 | 71 | 269 | 1.0 | 6.0 | 0.00 | 0.00 | 0.00 | 53 | 1020.0 |
| 20260830141503 | 71 | 250 | 1.0 | 7.0 | 0.00 | 0.00 | 0.00 | 53 | 1020.0 |
| 20260830141214 | 71 | 246 | 1.0 | 7.0 | 0.00 | 0.00 | 0.00 | 52 | 1020.0 |
| 20260830140503 | 71 | 248 | 2.0 | 7.0 | 0.00 | 0.00 | 0.00 | 52 | 1020.1 |
| 20260830140214 | 71 | 253 | 2.0 | 7.0 | 0.00 | 0.00 | 0.00 | 53 | 1020.1 |
| 20260830135503 | 71 | 266 | 1.0 | 4.0 | 0.00 | 0.00 | 0.00 | 53 | 1020.1 |
| 20260830135003 | 71 | 251 | 1.0 | 4.0 | 0.00 | 0.00 | 0.00 | 52 | 1020.1 |
| 20260830134503 | 71 | 261 | 1.0 | 3.0 | 0.00 | 0.00 | 0.00 | 53 | 1020.0 |
| 20260830134003 | 70 | 267 | 1.0 | 3.0 | 0.00 | 0.00 | 0.00 | 53 | 1020.0 |
| 20260830133503 | 70 | 256 | 1.0 | 5.0 | 0.00 | 0.00 | 0.00 | 54 | 1020.0 |
| 20260830133003 | 70 | 245 | 1.0 | 5.0 | 0.00 | 0.00 | 0.00 | 54 | 1020.0 |
| 20260830132503 | 69 | 238 | 1.0 | 6.0 | 0.00 | 0.00 | 0.00 | 55 | 1020.1 |
| 20260830132003 | 69 | 260 | 1.0 | 6.0 | 0.00 | 0.00 | 0.00 | 56 | 1020.1 |
| 20260830131503 | 69 | 269 | 1.0 | 3.0 | 0.00 | 0.00 | 0.00 | 55 | 1020.1 |
| 20260830131003 | 69 | 271 | 0.0 | 3.0 | 0.00 | 0.00 | 0.00 | 56 | 1020.0 |
| 20260830130713 | 68 | 272 | 0.0 | 2.0 | 0.00 | 0.00 | 0.00 | 56 | 1020.0 |
| 20260830130003 | 68 | 272 | 1.0 | 4.0 | 0.00 | 0.00 | 0.00 | 57 | 1020.0 |
| 20260830125503 | 68 | 269 | 1.0 | 4.0 | 0.00 | 0.00 | 0.00 | 55 | 1020.0 |
| 20260830125003 | 68 | 258 | 1.0 | 4.0 | 0.00 | 0.00 | 0.00 | 55 | 1020.0 |
| 20260830124503 | 68 | 216 | 2.0 | 6.0 | 0.00 | 0.00 | 0.00 | 55 | 1020.0 |
| 20260830124213 | 68 | 203 | 2.0 | 6.0 | 0.00 | 0.00 | 0.00 | 55 | 1020.1 |
| 20260830123503 | 67 | 200 | 2.0 | 5.0 | 0.00 | 0.00 | 0.00 | 56 | 1020.0 |
| 20260830123213 | 67 | 200 | 2.0 | 5.0 | 0.00 | 0.00 | 0.00 | 55 | 1020.1 |
| 20260830122503 | 67 | 228 | 0.0 | 4.0 | 0.00 | 0.00 | 0.00 | 58 | 1020.1 |
| 20260830122003 | 67 | 266 | 0.0 | 3.0 | 0.00 | 0.00 | 0.00 | 57 | 1020.1 |
| 20260830121714 | 67 | 266 | 0.0 | 3.0 | 0.00 | 0.00 | 0.00 | 58 | 1020.2 |
| 20260830121003 | 66 | 224 | 1.0 | 3.0 | 0.00 | 0.00 | 0.00 | 55 | 1020.2 |
| 20260830120714 | 66 | 228 | 1.0 | 3.0 | 0.00 | 0.00 | 0.00 | 55 | 1020.2 |
| 20260830120003 | 67 | 262 | 1.0 | 4.0 | 0.00 | 0.00 | 0.00 | 56 | 1020.2 |
| 20260830115503 | 67 | 260 | 1.0 | 6.0 | 0.00 | 0.00 | 0.00 | 55 | 1020.2 |
| 20260830115003 | 67 | 259 | 1.0 | 6.0 | 0.00 | 0.00 | 0.00 | 54 | 1020.3 |
| 20260830114503 | 67 | 256 | 2.0 | 6.0 | 0.00 | 0.00 | 0.00 | 54 | 1020.4 |
| 20260830114213 | 67 | 258 | 1.0 | 4.0 | 0.00 | 0.00 | 0.00 | 53 | 1020.4 |
| 20260830113714 | 67 | 269 | 1.0 | 4.0 | 0.00 | 0.00 | 0.00 | 54 | 1020.3 |
| 20260830113213 | 67 | 271 | 0.0 | 4.0 | 0.00 | 0.00 | 0.00 | 53 | 1020.2 |
| 20260830112503 | 67 | 269 | 1.0 | 4.0 | 0.00 | 0.00 | 0.00 | 53 | 1020.4 |
| 20260830112003 | 67 | 265 | 2.0 | 4.0 | 0.00 | 0.00 | 0.00 | 53 | 1020.3 |
| 20260830111503 | 67 | 261 | 1.0 | 6.0 | 0.00 | 0.00 | 0.00 | 53 | 1020.3 |
| 20260830111213 | 67 | 255 | 2.0 | 7.0 | 0.00 | 0.00 | 0.00 | 53 | 1020.2 |
| 20260830110503 | 66 | 249 | 2.0 | 7.0 | 0.00 | 0.00 | 0.00 | 53 | 1020.1 |
| 20260830110213 | 66 | 255 | 1.0 | 7.0 | 0.00 | 0.00 | 0.00 | 53 | 1020.2 |
| 20260830105503 | 66 | 251 | 1.0 | 6.0 | 0.00 | 0.00 | 0.00 | 53 | 1020.1 |
| 20260830105213 | 66 | 246 | 1.0 | 6.0 | 0.00 | 0.00 | 0.00 | 53 | 1020.2 |
| 20260830104503 | 66 | 250 | 1.0 | 5.0 | 0.00 | 0.00 | 0.00 | 53 | 1020.2 |
| 20260830104003 | 66 | 233 | 1.0 | 4.0 | 0.00 | 0.00 | 0.00 | 53 | 1020.2 |
| 20260830103503 | 66 | 226 | 2.0 | 7.0 | 0.00 | 0.00 | 0.00 | 53 | 1020.2 |